User: anonymous   Login
Location: Chacón
(10.5789°N, 66.9317°W)
Time: 18:04:28
(UTC+00:00)
Language:

Nadezhda 3 Rocket - Orbit

View from above orbital plane
View from above orbital plane
View from above satellite
View from above satellite

Ground track
Ground track

The orbit data is extracted from the following two-line orbital elements,

1 21153U 91019B   24195.95583872  .00000117  00000-0  10352-3 0  9993
2 21153  82.9244  80.3955 0030066 130.1851 240.7931 13.76191779673729
Epoch (UTC): 13 July 2024 22:56:24
Eccentricity: 0.0030066
inclination: 82.9244°
perigee height: 955 km
apogee height: 999 km
right ascension of ascending node: 80.3955°
argument of perigee: 130.1851°
revolutions per day: 13.76191779
mean anomaly at epoch: 240.7931°
orbit number at epoch: 67372

The dashed part of the orbit path shows where the satellite is in the earth's shadow,  

DLR